[[{"header":{"parameterUnit":"m.s-1","parameterCategory":1,"la1":30.2991,"la2":30.254,"lo1":-89.0895,"lo2":-89.0444,"dy":0.0017,"dx":0.0017,"nx":28,"ny":28,"refTime":"2023-08-18T03:00:00:Z","depth":0,"parameterNumber":2,"parameterNumberName":"U-component_of_WINDS"},"data":[0,0,0,0,0,0,0,0,0,0,0,0,0,0,0,0,0,0,0,0,0,0,0,0,0,0,0,0,0,0,0,0,0,0,0,0,0,0,0,0,0,0,0,0,0,0,0,0,0,0,0,0,0,0,0,0,0,0,2.9603,2.9604,0,2.9655,2.9656,2.9656,2.9643,2.9642,2.9641,2.964,2.9692,2.9694,2.9696,0,0,0,0,0,0,0,0,0,0,0,0,0,2.9493,2.9496,2.9603,2.9604,2.9604,2.9655,2.9656,2.9656,2.9643,2.9642,2.9641,2.964,2.9691,2.9694,2.9696,0,0,0,0,0,0,0,0,0,0,0,0,0,2.9543,2.9496,2.9603,2.9604,2.9605,2.9655,2.9656,2.9657,2.9644,2.9642,2.9641,2.9639,2.969,2.9693,2.9697,2.9749,0,0,2.9707,2.9709,0,0,0,0,0,0,0,0,2.954,2.9547,2.9603,2.9604,2.9605,2.9641,2.9636,2.9687,2.9644,2.9629,2.964,2.9638,2.9676,2.968,2.9693,2.9751,2.9753,2.9708,2.971,2.9711,2.9712,0,0,0,0,0,0,0,2.9537,2.9544,2.9624,2.9604,2.9605,2.9602,2.9608,2.9646,2.966,2.963,2.9629,2.9636,2.9676,2.969,2.9695,2.9754,2.9708,2.9711,2.9713,2.9714,2.986,2.9861,0,0,0,0,0,0,2.9533,2.9542,2.9622,2.9625,2.9568,2.9605,2.9611,2.9631,2.966,2.9663,2.9637,2.9635,2.9685,2.9691,2.9696,2.976,2.9711,2.9714,2.9716,2.9858,2.986,2.9862,0,0,0,0,0,0,2.953,2.954,2.962,2.9583,2.9593,2.9609,2.9631,2.9633,2.9647,2.9665,2.9667,2.9648,2.9684,2.9691,2.9736,2.9762,2.9716,2.9719,2.9856,2.9859,2.9861,2.9888,0,0,0,0,0,0,2.9527,2.9539,2.9558,2.9584,2.9595,2.9659,2.9633,2.9635,2.9653,2.9651,2.9676,2.9679,2.9683,2.9731,2.974,2.9766,2.9722,2.9854,2.9857,2.986,2.9885,2.9891,2.9897,0,0,0,0,0,2.9523,2.9563,2.9559,2.9569,2.962,2.966,2.9667,2.9671,2.9655,2.9675,2.9687,2.9678,2.9758,2.9736,2.9746,2.9773,2.9852,2.9856,2.986,2.9882,2.989,2.9896,0,0,0,0,0,0,2.9538,2.9566,2.9562,2.9612,2.9634,2.9658,2.9683,2.9679,2.9705,2.9702,2.9706,2.9712,2.9759,2.977,2.9745,2.9826,2.9803,2.9809,2.9816,2.9824,2.983,2.9825,2.9725,0,0,0,0,0,2.9548,2.9578,2.9601,2.9642,2.9654,2.9667,2.9684,2.9686,2.9709,2.9718,2.9733,2.9756,2.9786,2.9806,2.9835,2.9887,2.9893,2.9911,2.9917,2.9922,2.9927,2.9957,2.9966,2.9875,2.9875,2.9875,0,0,2.9566,2.9586,2.9604,2.9646,2.9663,2.9695,2.9674,2.9708,2.9733,2.9723,2.9767,2.978,2.9805,2.9855,2.9877,2.9866,2.9954,2.9927,2.9931,2.9933,2.9962,2.9971,2.9978,2.9878,2.9877,2.9877,0,0,2.9617,2.9635,2.9672,2.9691,2.9718,2.9727,2.9736,2.9762,2.977,2.9815,2.9809,2.9838,2.989,2.9909,2.9925,2.9988,2.9982,2.9998,3.0028,3.0058,3.0065,3.0071,3.0094,3.0103,3.0003,3.0003,3.0003,0,2.9637,2.9685,2.9691,2.9727,2.9746,2.9741,2.9779,2.9797,2.9832,2.9846,2.9833,2.99,2.9917,2.9972,2.9988,3.0001,3.0012,2.9994,3.0064,3.007,3.0076,3.0098,3.0107,3.0005,3.0004,3.0004,3.0004,0,2.9709,2.9743,2.9769,2.9805,2.9828,2.9864,2.9877,2.9899,2.99,2.9911,2.9957,2.9978,3.0012,3.0025,3.0026,3.0081,3.0074,3.0063,3.0039,3.0086,3.0107,3.0116,3.0007,3.0007,3.0006,3.0006,0,0,2.9767,2.9809,2.9819,2.9836,2.9868,2.9894,2.9932,2.9966,2.9986,3.0011,3.0043,3.0089,3.008,3.0099,3.0102,3.0129,3.0179,3.0114,3.0115,3.0126,3.0243,3.0251,3.026,3.0175,3.0177,3.0178,3.0241,0,2.9821,2.9888,2.9896,2.9955,2.9987,2.9985,3.0019,3.0042,3.0054,3.0084,3.0097,3.013,3.0115,3.0126,3.0153,3.0167,3.0202,3.0163,3.0205,3.0207,3.0198,3.0271,3.0279,3.0336,3.0249,3.025,3.0251,0,2.9892,2.9921,2.9984,3.0015,3.0028,3.0058,3.0092,3.012,3.0147,3.0155,3.0178,3.0179,3.0219,3.0195,3.0251,3.0224,3.0243,3.0253,3.0255,3.0258,3.0231,3.0276,3.0354,3.0363,3.0264,3.0263,3.0262,0,2.9929,2.9984,3.003,3.0045,3.0081,3.0102,3.0118,3.0144,3.0166,3.0196,3.021,3.0243,3.0262,3.0288,3.0299,3.0281,3.0355,3.0331,3.0362,3.0362,3.0376,3.0375,3.0459,3.0389,3.0389,3.0389,3.0389,0,2.9988,3.0026,3.0047,3.0075,3.0119,3.0129,3.0173,3.0188,3.0212,3.0244,3.0244,3.0273,3.0286,3.0318,3.0326,3.0372,3.038,3.0388,3.0389,3.0387,3.0386,3.0398,3.0394,3.0391,3.0391,3.039,3.039,0,3.0035,3.0051,3.0101,3.0132,3.0141,3.0172,3.0199,3.0227,3.024,3.028,3.029,3.0311,3.0348,3.0362,3.0408,3.0414,3.0467,3.0465,3.0458,3.0458,3.0488,3.0485,3.0581,3.0595,3.0517,3.0518,3.0518,0,3.0071,3.0101,3.0137,3.0159,3.0176,3.021,3.0233,3.0245,3.0269,3.0305,3.0328,3.0366,3.0397,3.0458,3.0477,3.0513,3.0512,3.0544,3.0517,3.0515,3.0512,3.051,3.0514,3.0548,3.0548,3.0549,3.055,0,3.0134,3.0141,3.0173,3.021,3.0237,3.0266,3.0294,3.0312,3.0329,3.0355,3.0395,3.0419,3.0467,3.0505,3.0542,3.0559,3.0558,3.0559,3.0567,3.0565,3.0559,3.0563,3.0471,3.0556,3.0555,3.0555,3.0554,3.0554,3.0177,3.0204,3.0234,3.0271,3.0295,3.0322,3.035,3.0368,3.0401,3.0442,3.0448,3.049,3.052,3.057,3.0589,3.0623,3.0615,3.0627,3.063,3.0633,3.0636,3.0555,3.063,3.063,3.063,3.063,3.063,0,3.0239,3.026,3.0294,3.0334,3.0364,3.0362,3.0394,3.0419,3.0457,3.0485,3.0516,3.0563,3.0601,3.0624,3.0663,3.0686,3.0686,3.0695,3.0693,3.0697,3.0641,3.0629,3.0694,3.0694,3.0694,3.0694,3.0694,3.0694,3.0275,3.0322,3.0334,3.0393,3.0413,3.0456,3.0474,3.05,3.0523,3.0575,3.0607,3.0623,3.065,3.0691,3.0726,3.0732,3.0746,3.0756,3.0761,3.0708,3.0701,3.0695,3.0684,3.0759,3.0759,3.0815,3.0816,3.0816]},{"header":{"parameterUnit":"m.s-1","parameterCategory":1,"la1":30.2991,"la2":30.254,"lo1":-89.0895,"lo2":-89.0444,"dy":0.0017,"dx":0.0017,"nx":28,"ny":28,"refTime":"2023-08-18T03:00:00:Z","depth":0,"parameterNumber":3,"parameterNumberName":"V-component_of_WINDS"},"data":[0,0,0,0,0,0,0,0,0,0,0,0,0,0,0,0,0,0,0,0,0,0,0,0,0,0,0,0,0,0,0,0,0,0,0,0,0,0,0,0,0,0,0,0,0,0,0,0,0,0,0,0,0,0,0,0,0,0,-2.0143,-2.0143,0,-2.0138,-2.0138,-2.0137,-2.0125,-2.0125,-2.0125,-2.0125,-2.0115,-2.0115,-2.0115,0,0,0,0,0,0,0,0,0,0,0,0,0,-2.0141,-2.0141,-2.0143,-2.0143,-2.0143,-2.0138,-2.0138,-2.0137,-2.0125,-2.0125,-2.0125,-2.0124,-2.0115,-2.0115,-2.0115,0,0,0,0,0,0,0,0,0,0,0,0,0,-2.0139,-2.0141,-2.0143,-2.0136,-2.0136,-2.0138,-2.0138,-2.0137,-2.0125,-2.0125,-2.0125,-2.0124,-2.0115,-2.0115,-2.0115,-2.0122,0,0,-2.0115,-2.0115,0,0,0,0,0,0,0,0,-2.0139,-2.0139,-2.0137,-2.0137,-2.0136,-2.0132,-2.0133,-2.0132,-2.0125,-2.0129,-2.0125,-2.0124,-2.0121,-2.012,-2.012,-2.0122,-2.0121,-2.0115,-2.0115,-2.0115,-2.0115,0,0,0,0,0,0,0,-2.0139,-2.0139,-2.0141,-2.0137,-2.0137,-2.0133,-2.0132,-2.0133,-2.0127,-2.0129,-2.0128,-2.0128,-2.012,-2.012,-2.0119,-2.0121,-2.0115,-2.0115,-2.0115,-2.0115,-2.013,-2.0131,0,0,0,0,0,0,-2.0141,-2.014,-2.0141,-2.0141,-2.0137,-2.0133,-2.0133,-2.0133,-2.0127,-2.0126,-2.0128,-2.0127,-2.012,-2.012,-2.0119,-2.0128,-2.0115,-2.0115,-2.0115,-2.013,-2.0131,-2.0131,0,0,0,0,0,0,-2.0141,-2.0141,-2.0141,-2.014,-2.014,-2.0134,-2.0135,-2.0134,-2.0133,-2.0126,-2.0125,-2.0129,-2.012,-2.0119,-2.0122,-2.0128,-2.0115,-2.0115,-2.0129,-2.013,-2.0131,-2.0146,0,0,0,0,0,0,-2.0141,-2.0141,-2.0144,-2.014,-2.014,-2.0145,-2.0135,-2.0134,-2.0134,-2.0132,-2.0127,-2.0125,-2.0119,-2.0122,-2.0122,-2.0127,-2.0115,-2.0129,-2.013,-2.0131,-2.0145,-2.0147,-2.0149,0,0,0,0,0,-2.0141,-2.0147,-2.0144,-2.0144,-2.0143,-2.0145,-2.0145,-2.0139,-2.0134,-2.0137,-2.0133,-2.0126,-2.0127,-2.0123,-2.0122,-2.0128,-2.0129,-2.013,-2.013,-2.0144,-2.0146,-2.0149,0,0,0,0,0,0,-2.015,-2.0146,-2.0143,-2.0148,-2.0148,-2.0143,-2.0146,-2.0142,-2.0141,-2.014,-2.0131,-2.013,-2.0135,-2.0131,-2.0126,-2.0135,-2.0127,-2.0128,-2.0137,-2.014,-2.0141,-2.0142,-2.0115,0,0,0,0,0,-2.0153,-2.0155,-2.0152,-2.0157,-2.0157,-2.0152,-2.0152,-2.0148,-2.0146,-2.0145,-2.0141,-2.0139,-2.0139,-2.0139,-2.0139,-2.0145,-2.0144,-2.0148,-2.015,-2.0152,-2.0153,-2.0157,-2.016,-2.0134,-2.0134,-2.0134,0,0,-2.0158,-2.0156,-2.0158,-2.0159,-2.0157,-2.016,-2.0151,-2.0154,-2.0156,-2.0145,-2.0149,-2.0146,-2.0142,-2.0148,-2.0149,-2.0145,-2.016,-2.0153,-2.0154,-2.0154,-2.0158,-2.0161,-2.0163,-2.0135,-2.0135,-2.0135,0,0,-2.0169,-2.0168,-2.0173,-2.0173,-2.0172,-2.0169,-2.0171,-2.0168,-2.0166,-2.017,-2.0163,-2.0164,-2.0164,-2.0163,-2.0162,-2.0176,-2.017,-2.0176,-2.0186,-2.0191,-2.0193,-2.0195,-2.0201,-2.0203,-2.0177,-2.0177,-2.0177,0,-2.0175,-2.018,-2.0176,-2.018,-2.0181,-2.0174,-2.0179,-2.0179,-2.0177,-2.0178,-2.0173,-2.0175,-2.0172,-2.0177,-2.0181,-2.0181,-2.0182,-2.0177,-2.0193,-2.0195,-2.0196,-2.0202,-2.0204,-2.0178,-2.0178,-2.0178,-2.0178,0,-2.0189,-2.0192,-2.0196,-2.0197,-2.0199,-2.0203,-2.0199,-2.0201,-2.0198,-2.0195,-2.02,-2.0197,-2.0197,-2.0198,-2.0193,-2.0203,-2.0201,-2.0195,-2.0186,-2.02,-2.0205,-2.0207,-2.0179,-2.0179,-2.0179,-2.0179,0,0,-2.0203,-2.0204,-2.0206,-2.0207,-2.0207,-2.0209,-2.0214,-2.0216,-2.0218,-2.0218,-2.0222,-2.0223,-2.0219,-2.0218,-2.0214,-2.0218,-2.0231,-2.0212,-2.0211,-2.0216,-2.0243,-2.0248,-2.025,-2.0227,-2.0228,-2.0228,-2.0244,0,-2.0214,-2.0224,-2.0221,-2.023,-2.0234,-2.0229,-2.0233,-2.0233,-2.0232,-2.0235,-2.0232,-2.0234,-2.0228,-2.0227,-2.0231,-2.0229,-2.0236,-2.0227,-2.023,-2.0231,-2.0232,-2.0253,-2.0257,-2.0272,-2.0246,-2.0246,-2.0246,0,-2.0228,-2.0231,-2.0241,-2.0243,-2.0244,-2.0248,-2.0251,-2.0253,-2.0254,-2.0253,-2.0254,-2.0249,-2.0254,-2.0246,-2.0253,-2.0247,-2.0248,-2.0248,-2.0248,-2.0248,-2.0239,-2.0254,-2.0276,-2.0279,-2.0249,-2.0249,-2.0249,0,-2.0239,-2.0245,-2.0253,-2.0254,-2.0256,-2.0259,-2.026,-2.026,-2.0262,-2.0264,-2.0265,-2.0267,-2.0268,-2.027,-2.0266,-2.0261,-2.0274,-2.0265,-2.0273,-2.0273,-2.0275,-2.0275,-2.0299,-2.0276,-2.0276,-2.0276,-2.0276,0,-2.0252,-2.0258,-2.0258,-2.0262,-2.027,-2.0268,-2.0275,-2.0275,-2.0276,-2.028,-2.0275,-2.0279,-2.0274,-2.0278,-2.0275,-2.0282,-2.0282,-2.0281,-2.028,-2.0281,-2.0282,-2.0282,-2.0281,-2.0277,-2.0276,-2.0276,-2.0276,0,-2.0264,-2.0265,-2.0273,-2.0275,-2.0276,-2.0281,-2.0283,-2.0287,-2.0286,-2.0292,-2.0293,-2.0291,-2.0296,-2.0293,-2.0296,-2.0294,-2.0304,-2.0301,-2.0304,-2.0303,-2.0311,-2.0311,-2.0336,-2.034,-2.0314,-2.0314,-2.0315,0,-2.0272,-2.0278,-2.0282,-2.0285,-2.0287,-2.0292,-2.0295,-2.0294,-2.0297,-2.03,-2.0304,-2.0308,-2.0311,-2.0318,-2.0317,-2.032,-2.0318,-2.0327,-2.0318,-2.032,-2.0319,-2.0319,-2.032,-2.0328,-2.0328,-2.0328,-2.0329,0,-2.0287,-2.0288,-2.0293,-2.0299,-2.0303,-2.0307,-2.031,-2.0313,-2.0312,-2.0316,-2.0321,-2.0324,-2.033,-2.0334,-2.0337,-2.0337,-2.0333,-2.0332,-2.0334,-2.0335,-2.0337,-2.0337,-2.0309,-2.0331,-2.0331,-2.033,-2.033,-2.033,-2.0298,-2.0304,-2.0308,-2.0314,-2.0318,-2.0322,-2.0327,-2.0328,-2.0333,-2.0338,-2.0337,-2.0343,-2.0346,-2.035,-2.0351,-2.0356,-2.0352,-2.0355,-2.0355,-2.0356,-2.0358,-2.0337,-2.0356,-2.0356,-2.0356,-2.0356,-2.0356,0,-2.0313,-2.0317,-2.0323,-2.0329,-2.0335,-2.0333,-2.0337,-2.0341,-2.0348,-2.0351,-2.0356,-2.0363,-2.0368,-2.0368,-2.0373,-2.0377,-2.0375,-2.0378,-2.0378,-2.0378,-2.036,-2.0359,-2.038,-2.038,-2.038,-2.038,-2.038,-2.038,-2.0322,-2.0331,-2.0333,-2.0345,-2.0347,-2.0355,-2.0358,-2.0362,-2.0365,-2.0374,-2.0379,-2.038,-2.0383,-2.0388,-2.0393,-2.0393,-2.0395,-2.0399,-2.0398,-2.0382,-2.0379,-2.0377,-2.0375,-2.0399,-2.04,-2.0416,-2.0416,-2.0416]}]]